Location: Chuathbaluk
(61.5726°N, 159.2454°W)
Time: 00:15:12
(UTC+00:00)

STARS - Visible Passes

Search period start: 24 January 2021 00:00
Search period end: 03 February 2021 00:00
Orbit: 623 x 640 km, 98.2° (Epoch: 23 January)

Date Brightness Start Highest point End Pass type
(mag) Time Alt. Az. Time Alt. Az. Time Alt. Az.
24 Jan ? 16:12:41 10° ENE 16:14:44 13° NE 16:16:46 10° N visible
24 Jan ? 17:46:01 10° SE 17:50:05 39° ENE 17:54:10 10° N visible
25 Jan ? 16:32:36 10° E 16:35:16 16° NE 16:37:58 10° N visible
25 Jan ? 18:06:34 10° SE 18:10:49 53° ENE 18:15:06 10° NNW visible
26 Jan ? 16:52:41 10° E 16:55:52 20° NE 16:59:04 10° N visible
27 Jan ? 17:12:54 10° ESE 17:16:29 26° NE 17:20:05 10° N visible
28 Jan ? 16:00:28 10° NE 16:01:56 12° NNE 16:03:25 10° NNE visible
28 Jan ? 17:33:15 10° ESE 17:37:09 33° NE 17:41:05 10° N visible
29 Jan ? 16:20:11 10° ENE 16:22:28 14° NE 16:24:45 10° N visible
29 Jan ? 17:53:44 10° SE 17:57:52 44° ENE 18:02:02 10° N visible
30 Jan ? 16:40:09 10° E 16:43:01 17° NE 16:45:54 10° N visible
31 Jan ? 17:00:17 10° E 17:03:37 22° NE 17:06:57 10° N visible
01 Feb ? 15:48:42 10° NE 15:49:09 10° NNE 15:49:36 10° NNE visible
01 Feb ? 17:20:33 10° ESE 17:24:15 28° NE 17:27:58 10° N visible
02 Feb ? 16:07:51 10° ENE 16:09:39 12° NE 16:11:27 10° N visible
02 Feb ? 17:40:57 10° ESE 17:44:56 36° ENE 17:48:56 10° N visible
